Regional Weather Roundup
Issued by NWS

Home | Current Version | Previous Version | Text Only | Print | Product List | Glossary Off
Versions: 1 2 3 4 5 6 7 8 9 10 11 12 13 14 15 16 17 18 19 20 21 22 23 24 25 26 27 28 29 30 31 32 33 34 35 36 37 38 39 40 41 42 43 44 45 46 47 48 49 50

000
ASUS43 KLSX 262310
RWRMO

WEATHER SUMMARY FOR MISSOURI
NATIONAL WEATHER SERVICE SPRINGFIELD MO
600 PM CDT SAT MAY 26 2018

NOTE: "FAIR" INDICATES FEW OR NO CLOUDS BELOW 12,000 FEET WITH NO
       SIGNIFICANT WEATHER AND/OR OBSTRUCTIONS TO VISIBILITY.
       CURRENT SKY AND/OR WEATHER CONDITIONS ARE NOT AVAILABLE FOR
       CHILLICOTHE AND FARMINGTON.

MOZ001>031-035>038-043-044-053-054-270000-
...NORTHERN AND WESTERN MISSOURI...

CITY           SKY/WX    TMP DP  RH WIND       PRES   REMARKS
KANSAS CTY INT CLOUDY    85  73  67 SW5       29.76S HX  91
KANSAS C DTWN  CLOUDY    91  66  43 SW9       29.74S HX  93
LEE`S SUMMIT   SUNNY     90  72  55 SW12      29.79R HX  97
ST JOSEPH      CLOUDY    93  65  39 S12       29.72F HX  95
CHILLICOTHE      N/A     83  64  52 S8        29.77R
KIRKSVILLE     CLOUDY    90  70  51 SW9       29.77R HX  95

$$
MOZ066>068-077>081-088>096-101>105-270000-
...SOUTHWEST MISSOURI...

CITY           SKY/WX    TMP DP  RH WIND       PRES   REMARKS
SPRINGFIELD    SUNNY     87  68  52 S7        29.82F HX  90
JOPLIN         SUNNY     88  70  55 W5        29.82S HX  93
BRANSON        MOSUNNY   84  66  54 CALM      29.86S

$$
MOZ032>034-039>042-045>050-055>058-069>072-270000-
...CENTRAL MISSOURI...

CITY           SKY/WX    TMP DP  RH WIND       PRES   REMARKS
COLUMBIA       SUNNY     88  69  53 SW13      29.78F HX  92
JEFFERSON CITY SUNNY     90  67  46 SW9       29.76F HX  93
ROLLA          SUNNY     85  70  60 SW7       29.82F
SEDALIA        SUNNY     89  70  53 SW8       29.80S HX  94
WHITEMAN AFB   SUNNY     89  73  58 SW12      29.75S HX  97
WARRENSBURG    SUNNY     90  70  51 S8        29.79S HX  95
OSAGE BEACH    SUNNY     88  71  57 SW7       29.80F HX  94

$$
MOZ051-052-059>065-270000-
...EAST CENTRAL MISSOURI...

CITY           SKY/WX    TMP DP  RH WIND       PRES   REMARKS
ST LOUIS INTL  PTSUNNY   91  70  49 W9        29.77F HX  96
SPIRIT OF STL  MOSUNNY   90  71  53 SW7       29.76S HX  96
ST CHARLES     MOSUNNY   93  69  45 W8        29.75S HX  98

$$
MOZ072>076-082>087-097>100-106>115-270000-
...SOUTH CENTRAL AND SOUTHEAST MISSOURI...

CITY           SKY/WX    TMP DP  RH WIND       PRES   REMARKS
CAPE GIRARDEAU FAIR      86  70  58 S3        29.78F HX  90
FARMINGTON     SUNNY     86  73  65 S7        29.81F HX  93
POPLAR BLUFF   FAIR      85  71  63 MISG      29.79F HX  90
WEST PLAINS    MOSUNNY   82  70  66 SW3       29.85F

$$




USA.gov is the U.S. government's official web portal to all federal, state and local government web resources and services.